Vorticity
6 3 1 3 10 13 7 17 4 11 -4 8 5 3 13 5 16 10 -1 9 2 3 1 4 2 3 2 2 2 3 3 4 5 5 5 5 6 7 7 7 7 6 5 7 4 5 4 4 5
2 8 8 0 14 -1 6 9 7 1 10 -2 6 3 11 18 -4 29 -1 5 2 4 0 2 2 2 3 4 6 5 5 9 9 8 7 5 4 6 8 7 4 4 6 7 6 5 5 4 5
3 5 -0 9 9 5 6 3 5 5 -5 1 -0 4 9 20 15 8 8 2 2 4 5 4 4 4 5 6 7 8 9 10 11 9 7 7 4 4 6 6 6 5 5 6 6 7 4 5 6
-7 -14 5 8 14 14 17 2 7 12 -4 12 -3 14 12 3 6 9 4 2 5 6 4 5 5 8 10 10 10 7 7 8 6 9 8 6 3 2 7 7 6 4 7 9 7 8 6 5 6
2 15 -1 2 5 15 9 5 9 -8 3 -4 8 11 -1 15 11 4 4 10 4 10 5 10 5 8 8 8 8 7 7 8 8 10 7 3 3 2 5 7 7 4 9 7 7 8 7 6 7
-1 1 8 19 3 9 6 7 2 8 7 11 13 -1 8 6 6 5 1 4 1 9 9 4 6 4 6 6 6 6 7 7 9 6 4 7 6 5 6 6 7 9 8 8 7 7 6 6 7
18 1 9 17 0 7 6 6 -4 0 1 11 4 11 10 5 3 5 5 7 4 -5 -4 6 6 5 5 4 5 5 7 4 8 6 6 2 5 6 8 6 7 8 7 8 6 7 6 5 6
15 8 15 11 6 6 14 5 5 6 0 6 -1 10 7 -1 4 5 7 5 -2 6 4 7 6 5 5 7 6 6 7 8 6 13 7 3 7 7 8 7 7 8 6 8 7 6 6 6 7
3 10 13 15 7 10 5 5 13 2 3 10 -9 25 7 5 5 6 5 4 13 1 2 10 7 6 6 5 6 7 5 7 5 5 3 8 9 9 9 7 7 6 7 7 8 5 4 7 7
-3 12 17 42 7 12 5 7 5 7 5 6 24 6 3 6 5 5 4 6 3 9 6 11 5 8 9 9 6 7 7 6 4 7 9 4 12 7 9 8 6 8 7 5 6 4 8 -1 1
5 5 13 12 5 8 4 9 7 5 9 9 -7 8 20 7 4 4 5 5 11 8 16 8 7 14 1 10 7 8 6 7 7 6 7 7 6 2 6 6 3 -0 -9 14 7 4 3 17 3
1 17 7 15 1 11 4 5 5 3 19 9 9 10 13 6 5 5 5 4 6 5 9 12 14 9 12 8 8 7 8 8 5 6 1 7 13 1 6 10 8 5 8 8 7 7 6 10 7
4 20 23 8 -11 11 5 11 -0 3 14 14 9 7 13 4 5 5 5 7 5 8 6 7 10 11 9 1 11 10 16 6 8 2 1 -4 9 9 5 5 15 10 6 7 6 7 6 10 5
10 22 13 -3 -1 10 6 4 1 11 17 12 7 5 6 5 5 6 5 7 7 6 7 5 7 9 11 10 7 8 2 8 4 4 7 5 12 6 3 -0 14 1 5 8 12 9 9 2 14
10 16 17 11 -0 -3 1 3 11 15 10 7 5 6 5 7 6 8 6 7 6 6 8 8 5 12 14 10 7 2 19 4 3 5 6 4 8 12 9 11 3 8 11 4 12 6 6 2 12
30 11 10 -3 12 16 -7 -1 16 14 11 5 4 4 6 5 5 8 11 7 6 3 6 9 4 12 11 9 7 5 4 9 4 4 9 9 6 7 3 6 9 12 5 5 4 5 7 8 9
16 29 -6 -6 23 9 -21 5 11 8 5 5 5 8 7 5 3 7 9 8 9 5 6 9 5 7 8 8 2 8 6 4 5 1 5 9 5 7 9 4 11 7 5 9 -1 25 1 -0 6
-15 22 0 12 5 3 5 -6 5 6 4 4 5 5 6 4 4 6 7 7 7 5 7 9 5 8 6 3 4 2 5 7 9 2 13 8 4 7 5 10 6 7 9 1 22 1 13 8 -1
-0 80 8 3 29 -14 22 10 -6 5 13 5 -2 6 5 6 0 4 5 6 6 9 11 8 5 9 6 7 -2 9 3 5 5 4 7 10 9 10 9 8 5 -1 18 9 6 -1 11 6 18
0 1 6 7 2 23 26 46 -1 13 6 -3 11 10 2 7 2 4 7 4 5 6 14 7 5 6 7 5 3 6 2 13 4 4 5 7 4 6 6 9 7 -1 7 9 6 12 3 14 0
15 11 0 35 6 6 3 10 45 13 2 2 1 3 10 0 10 5 5 2 5 6 6 9 7 4 6 8 0 1 8 5 7 7 6 7 7 7 9 4 10 7 3 10 5 15 1 6 15
4 3 23 24 -5 11 6 7 22 15 35 9 -7 13 6 6 3 -2 4 5 7 5 6 8 9 10 8 6 6 4 5 8 3 9 7 12 8 7 7 5 7 12 1 13 1 3 15 4 6
-6 -6 16 -3 4 17 -5 -21 6 25 -17 25 7 0 24 10 6 -13 4 7 10 3 8 8 6 11 7 2 3 8 9 -1 18 8 9 6 15 6 9 7 6 8 5 10 7 7 8 4 4
12 9 10 3 19 2 22 -19 30 -11 28 -11 29 7 3 7 2 17 10 1 5 11 3 8 9 3 1 8 7 7 6 -4 6 5 6 8 15 10 8 10 6 9 12 15 12 6 9 4 0
10 -1 -1 12 13 5 9 12 -4 30 42 25 26 -1 10 -5 2 2 10 9 5 -3 7 7 10 9 5 5 5 7 5 7 0 7 6 -0 6 15 6 6 8 7 4 7 8 5 5 9 7
6 5 -20 9 8 48 -3 19 25 21 11 12 19 6 6 10 0 -7 15 -20 2 22 4 8 5 17 7 11 6 4 4 5 5 8 2 2 3 12 5 7 9 11 10 8 8 8 9 8 9
10 3 2 -20 -11 34 -8 16 16 16 4 18 14 12 6 32 2 3 -0 15 65 1 1 4 5 11 9 8 8 5 6 6 4 11 8 1 7 5 16 8 11 9 11 13 9 10 15 11 10
-1 28 3 -1 1 1 33 9 33 1 13 13 11 23 2 25 15 -15 17 -2 3 11 5 4 6 11 12 11 6 8 5 6 4 1 5 -11 15 10 9 8 6 4 6 7 8 10 9 12 15
5 2 24 -6 5 -13 7 7 41 30 17 13 13 17 18 19 11 1 -9 13 -1 12 6 14 2 4 10 12 11 6 7 6 6 7 15 3 3 4 5 10 2 7 4 7 6 8 12 8 9
-1 21 -11 8 15 15 -5 16 0 12 9 13 13 22 15 23 3 32 15 -47 35 1 1 -20 -2 4 11 7 3 9 8 8 7 6 9 2 5 4 5 6 3 8 7 6 8 9 8 8 8
Height
3162 3162 3162 3163 3169 3165 3167 3172 3173 3174 3177 3179 3180 3181 3181 3180 3182 3188 3188 3192 3191 3192 3193 3194 3195 3196 3197 3198 3199 3198 3198 3199 3200 3200 3201 3202 3201 3202 3201 3201 3201 3202 3202 3203 3203 3203 3203 3203 3203
3162 3164 3164 3164 3166 3163 3171 3174 3175 3177 3178 3180 3181 3183 3182 3183 3182 3184 3189 3191 3195 3194 3195 3196 3197 3198 3199 3199 3200 3200 3200 3201 3201 3203 3203 3204 3204 3204 3205 3205 3205 3204 3205 3205 3205 3205 3205 3205 3205
3163 3165 3167 3165 3165 3163 3171 3175 3177 3179 3180 3183 3183 3179 3183 3184 3186 3189 3190 3194 3193 3196 3196 3198 3199 3199 3199 3200 3200 3201 3202 3202 3204 3205 3206 3207 3207 3207 3207 3207 3207 3207 3208 3207 3208 3208 3208 3208 3208
3167 3169 3171 3166 3165 3170 3172 3176 3178 3180 3183 3184 3184 3183 3186 3187 3191 3191 3194 3196 3196 3196 3197 3199 3199 3200 3200 3201 3202 3203 3205 3205 3206 3206 3208 3208 3209 3209 3210 3210 3210 3210 3210 3210 3210 3210 3210 3210 3211
3169 3168 3166 3169 3170 3173 3176 3178 3180 3182 3185 3185 3186 3186 3187 3189 3191 3194 3194 3196 3198 3198 3198 3200 3201 3201 3202 3203 3204 3206 3207 3207 3207 3208 3209 3211 3211 3212 3212 3212 3212 3213 3213 3213 3213 3213 3213 3213 3214
3167 3167 3168 3170 3172 3173 3177 3180 3182 3183 3185 3187 3187 3187 3189 3191 3193 3195 3199 3202 3205 3204 3200 3202 3203 3204 3205 3206 3207 3208 3208 3208 3210 3211 3212 3213 3214 3215 3215 3216 3215 3215 3215 3215 3215 3215 3216 3216 3217
3166 3164 3167 3169 3173 3175 3179 3182 3184 3186 3188 3188 3190 3189 3191 3194 3197 3202 3205 3204 3208 3203 3203 3204 3205 3206 3207 3208 3209 3210 3211 3210 3212 3214 3215 3216 3217 3217 3217 3218 3218 3218 3218 3218 3219 3219 3219 3219 3220
3165 3165 3167 3169 3174 3176 3180 3183 3185 3186 3187 3191 3191 3191 3193 3194 3200 3203 3203 3205 3205 3203 3204 3206 3206 3208 3209 3210 3212 3213 3214 3214 3216 3216 3218 3218 3218 3219 3219 3220 3221 3221 3221 3221 3221 3222 3222 3222 3222
3165 3165 3167 3170 3173 3175 3180 3180 3182 3185 3188 3192 3194 3191 3194 3197 3202 3203 3203 3206 3206 3205 3207 3207 3208 3209 3211 3212 3213 3214 3215 3216 3218 3218 3219 3220 3220 3221 3222 3222 3224 3223 3224 3224 3224 3225 3225 3225 3226
3164 3159 3166 3169 3173 3176 3180 3183 3185 3189 3190 3191 3194 3192 3193 3198 3201 3203 3207 3209 3208 3206 3207 3209 3210 3210 3211 3213 3215 3216 3218 3219 3220 3221 3222 3224 3223 3223 3224 3225 3226 3226 3227 3227 3227 3228 3228 3229 3229
3166 3163 3159 3167 3172 3179 3182 3185 3187 3190 3192 3193 3190 3192 3194 3198 3203 3205 3209 3211 3211 3209 3210 3208 3210 3212 3214 3214 3215 3218 3220 3222 3223 3223 3224 3226 3226 3226 3227 3228 3229 3229 3230 3228 3230 3230 3231 3231 3235
3166 3165 3164 3170 3172 3177 3182 3185 3187 3190 3192 3193 3192 3194 3196 3200 3204 3207 3212 3212 3212 3211 3212 3212 3210 3212 3214 3215 3220 3222 3223 3224 3224 3226 3227 3228 3229 3228 3230 3232 3232 3233 3233 3233 3234 3233 3232 3233 3234
3166 3165 3165 3170 3171 3179 3182 3185 3186 3189 3189 3193 3194 3195 3199 3203 3206 3209 3213 3214 3213 3213 3214 3211 3212 3213 3214 3216 3219 3223 3225 3225 3227 3228 3229 3230 3231 3231 3231 3231 3232 3235 3237 3237 3237 3236 3236 3236 3237
3164 3166 3165 3168 3174 3177 3183 3185 3186 3188 3190 3193 3195 3198 3202 3205 3208 3210 3212 3213 3214 3214 3213 3212 3213 3215 3216 3217 3220 3223 3225 3228 3229 3230 3231 3234 3233 3233 3234 3235 3236 3236 3239 3239 3238 3238 3241 3243 3241
3165 3166 3167 3169 3173 3176 3180 3185 3185 3188 3191 3192 3197 3201 3204 3207 3209 3209 3212 3214 3215 3215 3212 3214 3216 3216 3218 3220 3224 3226 3228 3231 3232 3233 3233 3234 3235 3235 3235 3238 3238 3239 3239 3240 3240 3242 3245 3247 3247
3165 3165 3167 3169 3172 3175 3179 3183 3184 3189 3192 3194 3199 3202 3205 3208 3209 3210 3211 3214 3215 3214 3213 3214 3219 3217 3220 3222 3224 3228 3231 3231 3233 3234 3235 3235 3236 3236 3237 3240 3241 3240 3241 3244 3245 3249 3250 3251 3251
3160 3162 3165 3167 3167 3175 3179 3181 3187 3190 3194 3197 3200 3203 3206 3209 3210 3211 3213 3215 3214 3213 3214 3216 3219 3219 3222 3224 3228 3229 3231 3234 3235 3235 3236 3237 3238 3238 3238 3242 3242 3241 3245 3246 3248 3249 3249 3252 3254
3159 3162 3162 3163 3169 3171 3175 3176 3183 3192 3196 3198 3202 3204 3206 3209 3211 3213 3215 3216 3215 3213 3214 3217 3219 3220 3223 3227 3228 3231 3234 3234 3236 3237 3238 3239 3240 3241 3240 3242 3243 3243 3248 3249 3246 3248 3249 3251 3253
3155 3140 3159 3161 3162 3168 3172 3175 3181 3186 3193 3196 3200 3203 3206 3207 3210 3213 3215 3216 3215 3214 3214 3217 3219 3221 3224 3227 3230 3233 3235 3236 3236 3237 3239 3240 3241 3242 3243 3242 3245 3245 3245 3246 3247 3249 3252 3254 3254
3159 3156 3159 3165 3169 3172 3170 3171 3177 3183 3189 3191 3197 3199 3205 3207 3209 3213 3214 3216 3217 3215 3215 3217 3220 3222 3224 3227 3231 3232 3235 3237 3239 3239 3239 3240 3241 3242 3243 3244 3245 3244 3248 3248 3248 3249 3253 3255 3254
3157 3158 3160 3163 3166 3170 3172 3177 3175 3180 3186 3189 3192 3196 3202 3205 3205 3211 3212 3216 3218 3217 3216 3218 3220 3222 3224 3227 3231 3233 3234 3236 3238 3238 3238 3239 3241 3242 3243 3244 3246 3247 3249 3249 3250 3251 3253 3256 3255
3158 3156 3160 3164 3168 3167 3170 3174 3174 3180 3183 3186 3190 3191 3197 3206 3206 3206 3211 3216 3218 3218 3217 3218 3220 3222 3226 3229 3230 3232 3234 3236 3236 3238 3239 3240 3241 3241 3243 3244 3245 3247 3249 3250 3251 3251 3252 3255 3258
3160 3163 3154 3154 3164 3166 3167 3168 3171 3180 3177 3179 3185 3188 3192 3199 3203 3208 3212 3217 3218 3217 3218 3217 3220 3222 3226 3228 3230 3233 3234 3233 3230 3238 3240 3239 3240 3242 3243 3244 3245 3247 3247 3248 3250 3252 3252 3254 3256
3160 3163 3165 3165 3162 3158 3158 3161 3164 3161 3161 3170 3175 3182 3188 3192 3202 3202 3209 3212 3218 3217 3218 3218 3219 3223 3225 3228 3230 3232 3232 3233 3235 3236 3237 3238 3239 3240 3242 3243 3244 3246 3247 3248 3249 3250 3251 3252 3253
3160 3162 3163 3162 3154 3150 3156 3159 3158 3158 3160 3164 3169 3176 3182 3190 3190 3202 3201 3208 3211 3214 3216 3218 3218 3221 3224 3227 3229 3230 3232 3233 3234 3236 3235 3232 3236 3240 3242 3243 3244 3245 3246 3247 3248 3250 3251 3252 3252
3157 3159 3159 3157 3152 3145 3153 3152 3155 3159 3159 3166 3169 3174 3180 3186 3190 3194 3202 3203 3208 3208 3210 3216 3217 3219 3223 3225 3227 3229 3231 3232 3233 3235 3238 3236 3236 3236 3240 3243 3244 3245 3246 3247 3248 3249 3250 3252 3251
3154 3156 3158 3158 3159 3159 3155 3150 3155 3163 3161 3164 3169 3173 3173 3178 3186 3192 3201 3201 3195 3209 3211 3213 3215 3217 3221 3223 3225 3227 3229 3231 3230 3232 3238 3238 3234 3237 3239 3242 3244 3245 3245 3245 3246 3247 3248 3249 3250
3149 3153 3155 3154 3155 3151 3148 3149 3146 3159 3164 3164 3168 3170 3171 3176 3181 3187 3195 3201 3206 3208 3212 3212 3214 3215 3218 3221 3223 3225 3227 3229 3230 3229 3229 3224 3225 3233 3227 3240 3242 3244 3245 3246 3246 3246 3247 3247 3248
3151 3151 3151 3150 3149 3142 3139 3146 3148 3149 3161 3165 3166 3169 3170 3171 3176 3183 3190 3189 3199 3205 3209 3209 3211 3214 3217 3218 3220 3223 3225 3227 3229 3230 3229 3229 3232 3236 3238 3240 3242 3244 3245 3245 3245 3246 3247 3247 3247
3145 3147 3151 3148 3149 3145 3141 3151 3157 3156 3158 3162 3165 3166 3169 3169 3174 3180 3184 3183 3184 3200 3205 3201 3211 3213 3215 3218 3220 3221 3223 3224 3226 3228 3229 3231 3233 3235 3238 3239 3241 3242 3243 3244 3245 3246 3246 3246 3246